Preview of NWS' New Version of Forecast
This preview is not operational and should not be used for support decisions.

Regional Weather Roundup (RWR)

Issued by National Weather Service (NWS)

                            
000
ASUS45 KCYS 192010
RWRWY 

WYOMING REGIONAL WEATHER ROUNDUP
NATIONAL WEATHER SERVICE CHEYENNE WY
200 PM MDT FRI APR 19 2019

NOTE:  "FAIR" INDICATES FEW OR NO CLOUDS BELOW 12,000 FEET
WITH NO SIGNIFICANT WEATHER AND/OR OBSTRUCTIONS TO VISIBILITY.

WYZ001-192100-
...YELLOWSTONE NATIONAL PARK...
  
CITY           SKY/WX    TMP DP  RH WIND       PRES   REMARKS
LK YELLOWSTONE   N/A     54  28  36 VRB3      30.20F                  
W YELLOWSTONE  NOT AVBL                                               

$$
WYZ002>013-054>058-071-098>099-192100-
...NORTHERN WYOMING...
  
CITY           SKY/WX    TMP DP  RH WIND       PRES   REMARKS
JACKSON        SUNNY     58  35  42 VRB3      30.17F                  
CODY           MOSUNNY   72  26  18 SW12G17   30.01F                  
GREYBULL       SUNNY     75  31  19 W6        29.95F                  
WORLAND        SUNNY     72  29  20 VRB5      29.97F                  
SHERIDAN       SUNNY     77  37  23 N12G20    29.93F                  
BUFFALO        SUNNY     72  33  24 NE7       29.99F                  
GILLETTE       MOSUNNY   72  37  28 NW18G29   29.95F                  
HULETT         FAIR      70  34  26 W15G21    29.96F                  
NEWCASTLE      FAIR      72  30  21 NW17G31   29.98F                  

$$
WYZ014>020-022>026-101>103-192100-
...CENTRAL WYOMING...
  
CITY           SKY/WX    TMP DP  RH WIND       PRES   REMARKS
BIG PINEY      SUNNY     64  29  26 SE8       30.17F                  
PINEDALE       SUNNY     61  32  33 NW6       30.19F                  
DUBOIS         FAIR      63  19  19 NW14G21   30.13F                  
LANDER         SUNNY     70  30  22 VRB5      30.04F                  
RIVERTON       SUNNY     72  29  20 VRB6      30.04F                  
CASPER         SUNNY     69  30  23 W9G23     30.05F                  
DOUGLAS        SUNNY     72  33  24 NW16G22   30.04F                  

$$
WYZ021-027>030-104>119-192100-
...SOUTHERN WYOMING...
  
CITY           SKY/WX    TMP DP  RH WIND       PRES   REMARKS
EVANSTON       SUNNY     61  29  29 W10       30.22F                  
KEMMERER       SUNNY     61  27  27 W12G17    30.22F                  
FORT BRIDGER   FAIR      66  27  22 NW9G17    30.24                   
ROCK SPRINGS   SUNNY     62  26  25 VRB6      30.19F                  
DIXON          FAIR      65  26  22 SW9G21    30.23F                  
RAWLINS        SUNNY     66  30  26 W20G30    30.17F                  
SARATOGA       FAIR      63  27  25 W17G26    30.21F                  
LARAMIE        MOSUNNY   64  25  22 N15G22    30.14F                  
CHEYENNE       SUNNY     68  27  21 NW15G35   30.10F                  
TORRINGTON     SUNNY     74  34  23 W8G17     29.99F                  
PINE BLUFFS    FAIR      70  30  23 N12G22    30.07F                  

$$
  

000
ASUS45 KCYS 192010
RWRWY 

WYOMING REGIONAL WEATHER ROUNDUP
NATIONAL WEATHER SERVICE CHEYENNE WY
200 PM MDT FRI APR 19 2019

NOTE:  "FAIR" INDICATES FEW OR NO CLOUDS BELOW 12,000 FEET
WITH NO SIGNIFICANT WEATHER AND/OR OBSTRUCTIONS TO VISIBILITY.

WYZ001-192100-
YELLOWSTONE NATIONAL PARK
  
CITY           SKY/WX    TMP DP  RH WIND       PRES   REMARKS
LK YELLOWSTONE   N/A     54  28  36 VRB3      30.20F                  
W YELLOWSTONE  NOT AVBL                                               

$$
WYZ002>013-054>058-071-098>099-192100-
NORTHERN WYOMING
  
CITY           SKY/WX    TMP DP  RH WIND       PRES   REMARKS
JACKSON        FAIR      58  35  42 VRB3      30.17F                  
CODY           FAIR      72  26  18 SW12G17   30.01F                  
GREYBULL       FAIR      75  31  19 W6        29.95F                  
WORLAND        FAIR      72  29  20 VRB5      29.97F                  
SHERIDAN       FAIR      77  37  23 N12G20    29.93F                  
BUFFALO        FAIR      72  33  24 NE7       29.99F                  
GILLETTE       FAIR      72  37  28 NW18G29   29.95F                  
HULETT         FAIR      70  34  26 W15G21    29.96                   
NEWCASTLE      FAIR      72  30  21 NW17G31   29.98                   

$$
WYZ014>020-022>026-101>103-192100-
CENTRAL WYOMING
  
CITY           SKY/WX    TMP DP  RH WIND       PRES   REMARKS
BIG PINEY      FAIR      64  29  26 SE8       30.17F                  
PINEDALE       FAIR      61  32  33 NW6       30.19                   
DUBOIS         FAIR      63  19  19 NW14G21   30.13                   
LANDER         FAIR      70  30  22 VRB5      30.04F                  
RIVERTON       FAIR      72  29  20 VRB6      30.04F                  
CASPER         FAIR      69  30  23 W9G23     30.05F                  
DOUGLAS        FAIR      72  33  24 NW16G22   30.04F                  

$$
WYZ021-027>030-104>119-192100-
SOUTHERN WYOMING
  
CITY           SKY/WX    TMP DP  RH WIND       PRES   REMARKS
EVANSTON       FAIR      61  29  29 W10       30.22F                  
KEMMERER       FAIR      61  27  27 W12G17    30.22                   
ROCK SPRINGS   FAIR      62  26  25 VRB6      30.19F                  
DIXON          FAIR      65  26  22 SW9G21    30.23F                  
RAWLINS        FAIR      66  30  26 W20G30    30.17F                  
SARATOGA       FAIR      63  27  25 W17G26    30.21F                  
LARAMIE        FAIR      64  25  22 N15G22    30.14F                  
CHEYENNE       FAIR      68  27  21 NW15G35   30.10F                  
TORRINGTON     FAIR      74  34  23 W8G17     29.99F                  
PINE BLUFFS    FAIR      70  30  23 N12G22    30.07F                  

$$